[[{"header":{"parameterUnit":"m.s-1","parameterCategory":1,"la1":30.2991,"la2":30.254,"lo1":-89.0895,"lo2":-89.0444,"dy":0.0017,"dx":0.0017,"nx":28,"ny":28,"refTime":"2025-04-14T09:00:00:Z","depth":0,"parameterNumber":2,"parameterNumberName":"U-component_of_WINDS"},"data":[0,0,0,0,0,0,0,0,0,0,0,0,0,0,0,0,0,0,0,0,0,0,0,0,0,0,0,0,0,0,0,0,0,0,0,0,0,0,0,0,0,0,0,0,0,0,0,0,0,0,0,0,0,0,0,0,0,0,2.2819,2.282,0,2.2901,2.2902,2.2903,2.2914,2.2913,2.2912,2.2912,2.3002,2.3005,2.3008,0,0,0,0,0,0,0,0,0,0,0,0,0,2.2678,2.2681,2.2819,2.282,2.2821,2.2901,2.2902,2.2903,2.2914,2.2913,2.2912,2.2911,2.3001,2.3005,2.3008,0,0,0,0,0,0,0,0,0,0,0,0,0,2.2748,2.2682,2.2819,2.2836,2.2838,2.2901,2.2902,2.2904,2.2914,2.2913,2.2912,2.2911,2.3,2.3004,2.3009,2.3062,0,0,2.3023,2.3025,0,0,0,0,0,0,0,0,2.2744,2.2753,2.2832,2.2835,2.2838,2.2896,2.2886,2.2957,2.2915,2.2886,2.2912,2.291,2.2968,2.2975,2.2994,2.3066,2.307,2.3024,2.3027,2.3029,2.303,0,0,0,0,0,0,0,2.2739,2.275,2.2852,2.2834,2.2837,2.2842,2.285,2.2899,2.2933,2.2888,2.2889,2.2898,2.2969,2.2989,2.2996,2.3071,2.3024,2.3028,2.3031,2.3033,2.3193,2.3195,0,0,0,0,0,0,2.273,2.2746,2.2849,2.2854,2.2787,2.2845,2.2855,2.2879,2.2932,2.2939,2.2899,2.2898,2.2981,2.299,2.2999,2.3065,2.3029,2.3033,2.3036,2.3192,2.3194,2.3195,0,0,0,0,0,0,2.2727,2.2739,2.2846,2.28,2.2814,2.2849,2.2876,2.2881,2.29,2.294,2.2947,2.2913,2.2981,2.2992,2.3046,2.3069,2.3035,2.3039,2.319,2.3193,2.3195,2.3198,0,0,0,0,0,0,2.2723,2.2738,2.2757,2.28,2.2816,2.289,2.2877,2.2883,2.2908,2.2908,2.2955,2.2962,2.2981,2.3039,2.3051,2.3075,2.3043,2.3189,2.3191,2.3194,2.3196,2.32,2.3203,0,0,0,0,0,2.2718,2.2756,2.2758,2.2771,2.2841,2.2891,2.29,2.292,2.2909,2.293,2.2956,2.296,2.3064,2.3044,2.3058,2.3083,2.3187,2.3191,2.3194,2.3194,2.3199,2.3203,0,0,0,0,0,0,2.2717,2.2762,2.2765,2.2817,2.285,2.2893,2.2919,2.2924,2.2962,2.296,2.2985,2.2995,2.3048,2.3071,2.3048,2.3138,2.3125,2.3131,2.3121,2.3126,2.313,2.3123,2.3047,0,0,0,0,0,2.2722,2.2757,2.2796,2.2839,2.2855,2.2884,2.2907,2.2918,2.2954,2.2969,2.2998,2.3035,2.3076,2.3102,2.3142,2.32,2.3211,2.3224,2.3227,2.323,2.3236,2.3269,2.3275,2.3206,2.3206,2.3206,0,0,2.2734,2.2764,2.2785,2.2839,2.2866,2.2903,2.2895,2.2936,2.2965,2.2975,2.3027,2.3051,2.3093,2.3149,2.3175,2.317,2.3257,2.3234,2.3236,2.324,2.3273,2.3279,2.3285,2.3208,2.3208,2.3207,0,0,2.2776,2.2801,2.284,2.2866,2.2906,2.2925,2.2934,2.2976,2.2992,2.3044,2.3053,2.3089,2.3159,2.3188,2.3213,2.3266,2.3272,2.3279,2.3298,2.333,2.3336,2.3341,2.3361,2.3368,2.3284,2.3284,2.3284,0,2.2787,2.2842,2.286,2.2899,2.2924,2.2933,2.2974,2.3,2.3051,2.3069,2.3062,2.3149,2.3178,2.3242,2.3255,2.3274,2.3287,2.3274,2.3333,2.3338,2.3343,2.3363,2.337,2.3284,2.3284,2.3284,2.3284,0,2.2854,2.2892,2.2919,2.2966,2.2994,2.3034,2.306,2.3086,2.3096,2.3117,2.3171,2.3206,2.3253,2.3269,2.328,2.3335,2.333,2.3328,2.3315,2.335,2.3369,2.3377,2.3285,2.3285,2.3285,2.3285,0,0,2.2897,2.2953,2.2963,2.2985,2.3029,2.3061,2.3102,2.3146,2.3169,2.3205,2.3241,2.33,2.3298,2.3325,2.334,2.3368,2.3409,2.3362,2.3364,2.337,2.3473,2.3475,2.3483,2.3413,2.3415,2.3416,2.347,0,2.2944,2.3015,2.3033,2.3095,2.3131,2.3141,2.3178,2.321,2.3231,2.3267,2.3291,2.3332,2.3326,2.3343,2.3371,2.3398,2.343,2.3394,2.3449,2.3451,2.3438,2.3493,2.3495,2.3544,2.3477,2.3478,2.3479,0,2.3009,2.3044,2.3108,2.3149,2.3165,2.3197,2.3239,2.3273,2.3311,2.3324,2.3355,2.3366,2.3412,2.3397,2.3461,2.3436,2.346,2.3477,2.3479,2.3486,2.3467,2.3501,2.356,2.3568,2.3491,2.349,2.3489,0,2.3034,2.3098,2.3145,2.3164,2.3212,2.3234,2.3256,2.3292,2.3318,2.3356,2.3373,2.3417,2.3441,2.3476,2.35,2.3486,2.3562,2.3549,2.3576,2.3576,2.3592,2.3591,2.3656,2.3607,2.3606,2.3606,2.3606,0,2.3086,2.3125,2.3157,2.3186,2.3232,2.3252,2.3297,2.332,2.3352,2.3387,2.34,2.3433,2.3462,2.35,2.3519,2.357,2.3581,2.3595,2.36,2.3594,2.3592,2.361,2.3608,2.3608,2.3608,2.3607,2.3607,0,2.3122,2.3145,2.3197,2.3238,2.3249,2.3281,2.3317,2.3347,2.3368,2.3413,2.3424,2.3458,2.3503,2.353,2.3588,2.3601,2.3658,2.3661,2.3645,2.3647,2.3673,2.3671,2.3753,2.3765,2.3706,2.3707,2.3707,0,2.3153,2.3184,2.3227,2.3251,2.3272,2.331,2.3336,2.3358,2.3385,2.3431,2.3456,2.3501,2.3539,2.3611,2.3642,2.3687,2.3692,2.3718,2.3699,2.3693,2.3694,2.3692,2.3695,2.3721,2.3722,2.3722,2.3722,0,2.3207,2.3216,2.3252,2.3292,2.3322,2.3355,2.3389,2.3408,2.3436,2.3466,2.3511,2.354,2.3599,2.3645,2.3692,2.3717,2.3725,2.3728,2.3737,2.3732,2.3721,2.3728,2.3654,2.3726,2.3726,2.3726,2.3725,2.3725,2.3242,2.327,2.3305,2.3345,2.3372,2.3402,2.3432,2.3457,2.3494,2.3542,2.3553,2.3601,2.364,2.3704,2.373,2.377,2.3766,2.3778,2.3782,2.3785,2.3786,2.3714,2.3778,2.3778,2.3778,2.3778,2.3778,0,2.3297,2.332,2.3356,2.3401,2.3433,2.3436,2.3473,2.35,2.3541,2.3576,2.3612,2.3665,2.371,2.3744,2.379,2.3815,2.3821,2.3827,2.3826,2.3832,2.3786,2.3774,2.3822,2.3822,2.3822,2.3822,2.3822,2.3822,2.3329,2.3376,2.339,2.3452,2.3475,2.3521,2.3542,2.3571,2.3599,2.3656,2.3693,2.3714,2.3749,2.3798,2.384,2.3849,2.3866,2.3872,2.3882,2.3839,2.3835,2.383,2.3819,2.3875,2.3875,2.3924,2.3925,2.3925]},{"header":{"parameterUnit":"m.s-1","parameterCategory":1,"la1":30.2991,"la2":30.254,"lo1":-89.0895,"lo2":-89.0444,"dy":0.0017,"dx":0.0017,"nx":28,"ny":28,"refTime":"2025-04-14T09:00:00:Z","depth":0,"parameterNumber":3,"parameterNumberName":"V-component_of_WINDS"},"data":[0,0,0,0,0,0,0,0,0,0,0,0,0,0,0,0,0,0,0,0,0,0,0,0,0,0,0,0,0,0,0,0,0,0,0,0,0,0,0,0,0,0,0,0,0,0,0,0,0,0,0,0,0,0,0,0,0,0,5.1524,5.1524,0,5.1588,5.1589,5.159,5.1608,5.1608,5.1607,5.1607,5.1665,5.1667,5.1669,0,0,0,0,0,0,0,0,0,0,0,0,0,5.1407,5.141,5.1524,5.1524,5.1525,5.1588,5.1589,5.159,5.1608,5.1608,5.1607,5.1607,5.1665,5.1667,5.1669,0,0,0,0,0,0,0,0,0,0,0,0,0,5.1463,5.141,5.1523,5.1542,5.1544,5.1588,5.1589,5.159,5.1608,5.1608,5.1607,5.1607,5.1664,5.1667,5.167,5.1697,0,0,5.1678,5.1679,0,0,0,0,0,0,0,0,5.146,5.1468,5.1539,5.1541,5.1544,5.159,5.157,5.1626,5.1608,5.1584,5.1607,5.1606,5.164,5.1645,5.1658,5.17,5.1702,5.1678,5.168,5.1681,5.1682,0,0,0,0,0,0,0,5.1456,5.1465,5.1549,5.1539,5.1543,5.1544,5.1552,5.158,5.1614,5.1586,5.1587,5.1595,5.1641,5.1655,5.1659,5.1703,5.1678,5.1681,5.1682,5.1684,5.177,5.177,0,0,0,0,0,0,5.145,5.1462,5.1547,5.1551,5.15,5.1547,5.1555,5.1575,5.1614,5.1619,5.1596,5.1596,5.1651,5.1656,5.1661,5.1696,5.1681,5.1684,5.1685,5.1769,5.177,5.1771,0,0,0,0,0,0,5.1448,5.1458,5.1544,5.1507,5.1518,5.155,5.1572,5.1577,5.1591,5.1621,5.1626,5.1604,5.165,5.1657,5.1688,5.1698,5.1685,5.1688,5.1769,5.1769,5.177,5.1765,0,0,0,0,0,0,5.1444,5.1457,5.1469,5.1507,5.152,5.1573,5.1573,5.1579,5.1597,5.1598,5.163,5.1635,5.1651,5.1684,5.1691,5.1702,5.169,5.1768,5.1769,5.177,5.1765,5.1766,5.1767,0,0,0,0,0,5.144,5.1464,5.147,5.148,5.1537,5.1573,5.158,5.16,5.1597,5.1609,5.1628,5.1634,5.1696,5.1687,5.1695,5.1707,5.1767,5.1769,5.177,5.1764,5.1766,5.1767,0,0,0,0,0,0,5.1423,5.1469,5.1476,5.1513,5.154,5.1576,5.1592,5.1601,5.1626,5.1625,5.1646,5.1653,5.1683,5.1698,5.1687,5.1735,5.1732,5.1735,5.1724,5.1726,5.1727,5.1723,5.1692,0,0,0,0,0,5.1424,5.1453,5.149,5.1519,5.1532,5.156,5.1576,5.1589,5.1616,5.1626,5.1648,5.1671,5.1696,5.1712,5.1736,5.1767,5.1774,5.1779,5.178,5.1781,5.1783,5.18,5.1802,5.1775,5.1775,5.1775,0,0,5.1426,5.1454,5.147,5.1516,5.1538,5.1565,5.1569,5.1596,5.1616,5.1629,5.1661,5.1677,5.1705,5.1736,5.1751,5.1749,5.1792,5.1783,5.1783,5.1785,5.1802,5.1804,5.1806,5.1776,5.1776,5.1776,0,0,5.1442,5.1467,5.1494,5.1517,5.1551,5.1569,5.1576,5.1611,5.1624,5.1656,5.1667,5.1689,5.1731,5.1751,5.1766,5.179,5.1796,5.1797,5.1803,5.1819,5.1821,5.1823,5.1832,5.1834,5.1799,5.1799,5.1799,0,5.1439,5.1482,5.1506,5.1534,5.1553,5.157,5.1596,5.1616,5.1655,5.1666,5.1665,5.172,5.1739,5.1775,5.1781,5.1793,5.1799,5.1794,5.182,5.1822,5.1824,5.1832,5.1835,5.1799,5.1799,5.1799,5.1799,0,5.1476,5.1506,5.1523,5.1564,5.1585,5.1612,5.1637,5.1655,5.1666,5.1684,5.1716,5.174,5.177,5.1779,5.1789,5.1816,5.1814,5.1816,5.1813,5.1826,5.1834,5.1837,5.1799,5.1799,5.1799,5.1799,0,0,5.1483,5.1538,5.1544,5.1563,5.1602,5.1624,5.1651,5.1683,5.1697,5.1723,5.1745,5.1781,5.1784,5.1801,5.1813,5.1827,5.1844,5.1827,5.1828,5.1829,5.1875,5.1873,5.1876,5.1849,5.1849,5.185,5.1872,0,5.1504,5.1556,5.1579,5.1619,5.1646,5.1663,5.1685,5.1711,5.1728,5.1751,5.1769,5.1794,5.1795,5.1806,5.1821,5.1839,5.1854,5.1838,5.1867,5.1868,5.186,5.1881,5.1879,5.1899,5.1876,5.1876,5.1876,0,5.1536,5.1566,5.161,5.1647,5.1659,5.168,5.1711,5.1734,5.1762,5.1773,5.1793,5.1805,5.1831,5.1826,5.1862,5.185,5.1863,5.1874,5.1875,5.1878,5.1873,5.1884,5.1906,5.1908,5.1882,5.1881,5.1881,0,5.1536,5.1587,5.1621,5.1636,5.1679,5.1694,5.1712,5.174,5.1758,5.1784,5.1795,5.1823,5.1838,5.1858,5.1876,5.1871,5.1909,5.1906,5.1918,5.1917,5.1925,5.1924,5.1949,5.1934,5.1933,5.1933,5.1933,0,5.1557,5.1584,5.1622,5.1642,5.1671,5.1695,5.1723,5.1741,5.1766,5.1789,5.1803,5.1823,5.1846,5.1868,5.1882,5.1909,5.1915,5.1924,5.1927,5.1923,5.1922,5.1931,5.193,5.1934,5.1934,5.1934,5.1934,0,5.1563,5.1589,5.1627,5.1666,5.1676,5.1696,5.1728,5.1747,5.1765,5.1793,5.1801,5.1828,5.1856,5.1876,5.191,5.1919,5.1948,5.1951,5.1939,5.1941,5.1951,5.195,5.1983,5.1988,5.197,5.197,5.197,0,5.1574,5.1596,5.1638,5.1656,5.1675,5.1702,5.1722,5.1745,5.1764,5.1798,5.1813,5.1842,5.1866,5.1908,5.1929,5.1955,5.1959,5.1969,5.1963,5.1958,5.1959,5.1957,5.1959,5.1969,5.1969,5.197,5.197,0,5.1592,5.1605,5.1634,5.1667,5.1691,5.1717,5.1744,5.1756,5.1784,5.1804,5.1834,5.1853,5.189,5.1917,5.1946,5.1961,5.1969,5.1972,5.1976,5.1971,5.1963,5.1967,5.1941,5.1971,5.197,5.197,5.197,5.197,5.1601,5.162,5.1654,5.1685,5.1709,5.1733,5.1754,5.1776,5.1802,5.1835,5.1847,5.1877,5.1903,5.1943,5.1959,5.1981,5.1981,5.1987,5.1988,5.1989,5.1989,5.196,5.1986,5.1986,5.1986,5.1986,5.1986,0,5.1619,5.1642,5.1671,5.171,5.1734,5.1743,5.1773,5.1791,5.1819,5.1845,5.1869,5.1902,5.193,5.1954,5.1981,5.1994,5.1999,5.2001,5.2,5.2003,5.1988,5.1982,5.1997,5.1997,5.1997,5.1997,5.1997,5.1997,5.1632,5.1666,5.1682,5.1727,5.1749,5.1781,5.1797,5.1819,5.184,5.1878,5.1902,5.1919,5.1943,5.1973,5.1997,5.2004,5.2013,5.2014,5.202,5.2005,5.2004,5.2003,5.1997,5.2016,5.2016,5.2034,5.2034,5.2034]}]]